Location: Street
(51.1247°N, 2.7429°W)
Time: 04:08:59
(UTC+00:00)

Transit 2A Rocket - Pass Details

Date: 04 December 2020
Orbit: 592 x 911 km, 66.7° (Epoch: 16 January)

Event Time Altitude Azimuth Distance (km) Brightness Sun altitude
Exits shadow 06:52:31 - 328° (NNW) 2,576 7.2 -9.6°
Reaches altitude 10° 06:53:34 10° 336° (NNW) 2,271 7.0 -9.5°
Maximum altitude 06:57:15 19° 22° (NNE) 1,646 6.7 -8.9°
Drops below altitude 10° 07:00:44 10° 68° (ENE) 2,118 8.0 -8.4°
Sets 07:03:33 0° 86° (E) 2,974 9.2 -8.0°
